Location: Newark
(41.8922°N, 9.0050°E)
Time: 00:57:13
(UTC+00:00)

Envisat - Pass Details

Date: 25 January 2020
Orbit: 764 x 766 km, 98.1° (Epoch: 20 February)

Event Time Altitude Azimuth Distance (km) Brightness Sun altitude
Rises 04:33:40 0° 37° (NE) 3,239 6.7 -24.1°
Reaches altitude 10° 04:38:14 10° 75° (ENE) 2,304 6.4 -23.2°
Maximum altitude 04:39:20 11° 88° (E) 2,257 6.5 -23.0°
Drops below altitude 10° 04:40:26 10° 100° (E) 2,300 6.6 -22.8°
Sets 04:44:57 0° 138° (SE) 3,218 7.0 -22.0°
